Preview of NWS' New Version of Forecast
This preview is not operational and should not be used for support decisions.
Latest weather observations around

Buffalo, Greater Buffalo International Airport (KBUF)

Using English Units (Switch to International System of Units)
Date/ Time (EDT) Wind (mph) Vis. (mi) Weather Sky Cond. Temp (°F) Rel. Humidity Wind Chill (°F) Heat Index (°F) Pressure Precip. (in)
Air Dwpt 6 hour Altimeter (inHg) Sea level (inHg) 1 hr 3 hr 6 hr
Max Min
May 19 21:54   10 Light Rain FEW007 BKN044 OVC080 57 55     93%     29.81 29.8 0    
May 19 20:54   10 Light Rain SCT070 OVC110 62 57     84%     29.78 29.78 0    
May 19 19:54 W 15 10 Light Rain SCT065 BKN090 OVC110 71 58     63%   71 29.77 29.76 0   0
May 19 18:54 SW 11 10 Mostly Cloudy SCT060 SCT100 BKN150 BKN200 76 58     54%   76 29.72 29.71      
May 19 17:54 WSW 15 10 Mostly Cloudy SCT060 BKN250 79 59     50%   79 29.72 29.7      
May 19 16:54 SW 13 10 Mostly Cloudy FEW060 BKN250 82 61     49%   83 29.72 29.7      
May 19 15:54 SW 13 10 Mostly Cloudy FEW060 FEW120 BKN250 82 64     55%   84 29.74 29.73      
May 19 14:54 WSW 13 10 Mostly Cloudy FEW060 FEW120 BKN280 83 64     53%   84 29.78 29.77      
May 19 13:54 WSW 18 10 Partly Cloudy FEW035 SCT090 SCT280 80 64     58%   82 29.81 29.8     0
May 19 12:54 SW 16 10 Mostly Clear FEW035 FEW070 FEW095 80 65     60%   82 29.82 29.81 0    
May 19 11:54 SW 13 9 Light Rain FEW036 BKN055 BKN075 BKN140 73 64     73%   73 29.84 29.84 0    
May 19 10:54 SSW 11 10 Mostly Cloudy FEW065 BKN095 80 63     56%   81 29.84 29.83      
May 19 09:54 SW 11 10 Mostly Clear FEW090 79 63     58%   79 29.86 29.85      
May 19 08:54 SW 7 10 Mostly Cloudy SCT085 BKN110 75 63     66%   75 29.87 29.86      
May 19 07:54 S 6 10 Partly Cloudy FEW060 FEW080 FEW200 SCT250 68 61     78%     29.87 29.86      
May 19 06:54 SSW 8 10 Mostly Clear FEW060 FEW200 FEW270 62 59     90%     29.87 29.86      
May 19 05:54 SW 6 10 Partly Cloudy SCT050 SCT250 62 58     86%     29.86 29.85      
May 19 04:54 SSW 7 10 Partly Cloudy FEW050 SCT100 SCT250 64 60     87%     29.85 29.84      
May 19 03:54 W 3 10 Mostly Cloudy FEW050 SCT110 BKN250 64 59     84%     29.86 29.85      
May 19 02:54 S 7 10 Mostly Cloudy SCT090 BKN110 BKN250 63 58     84%     29.86 29.85      
May 19 01:54 SSE 7 10 Partly Cloudy FEW035 SCT090 SCT250 63 57     81%     29.86 29.85      
May 19 00:54 SE 8 10 Mostly Cloudy SCT075 BKN090 61 53     75%     29.88 29.88      
May 18 23:54 ESE 7 10 Mostly Clear FEW220 59 48     67%     29.89 29.88      
May 18 22:54 E 6 10 Mostly Clear FEW220 58 46     65%     29.9 29.9      
May 18 21:54 ENE 8 10 Mostly Clear FEW050 FEW220 59 45     60%     29.92 29.92      
May 18 20:54 NE 7 10 Partly Cloudy FEW050 SCT220 60 45     57%     29.93 29.93      
May 18 19:54 ENE 8 10 Mostly Cloudy BKN040 63 45     52%     29.94 29.95      
May 18 18:54 ENE 13 10 Mostly Cloudy BKN047 64 46     52%     29.94 29.94      
May 18 17:54 NE 11 10 Mostly Cloudy BKN050 BKN100 BKN150 BKN220 65 47     52%     29.95 29.95      
May 18 16:54 NNE 10 10 Mostly Cloudy FEW070 SCT100 BKN150 BKN250 68 46     45%     29.96 29.96      
May 18 15:54 NE 8 10 Mostly Cloudy BKN070 BKN120 BKN160 BKN250 68 43     40%     29.97 29.97      
May 18 14:54 3 10 Mostly Cloudy BKN070 BKN120 BKN160 BKN250 66 41     40%     29.99 29.99      
May 18 13:54 NNE 7 10 Mostly Cloudy BKN070 BKN120 BKN160 BKN250 66 42     42%     30.01 30.01      
May 18 12:54 E 7 10 Mostly Cloudy BKN070 BKN110 BKN160 BKN250 63 42     46%     30.02 30.02      
May 18 11:54 ESE 6 10 Mostly Cloudy FEW050 BKN070 BKN120 BKN200 BKN250 60 43     53%     30.03 30.03      
May 18 10:54 ENE 8 10 Mostly Cloudy BKN080 BKN130 BKN200 BKN250 58 44     60%     30.05 30.05      
May 18 09:54 ENE 9 10 Mostly Cloudy FEW110 SCT140 SCT200 BKN250 55 43     64%     30.05 30.05      
May 18 08:54 E 8 10 Mostly Cloudy FEW110 SCT140 SCT200 BKN250 51 41     68%     30.05 30.05      
May 18 07:54 Calm 10 Mostly Cloudy FEW150 SCT190 BKN250 46 41     82%     30.05 30.06      
May 18 06:54 SE 5 10 Mostly Cloudy FEW150 SCT180 BKN230 44 41     89% 41   30.02 30.02      
May 18 05:54 ENE 3 10 Mostly Cloudy FEW150 SCT220 BKN280 41 39     93% 39   30.01 30.02      
May 18 04:54 SSW 3 10 Mostly Clear FEW280 43 39     86% 41   30.01 30.02      
May 18 03:54 Calm 10 Mostly Clear FEW280 46 39     76%     30 30      
May 18 02:54 N 3 10 Mostly Clear FEW280 46 40     79% 45   29.97 29.98      
May 18 01:54 Calm 10 Mostly Clear FEW280 48 41     77%     29.97 29.98      
May 18 00:54 Calm 10 Mostly Cloudy FEW150 BKN280 49 40     71%     29.97 29.97      
May 17 23:54 N 6 10 Mostly Cloudy BKN280 49 43     80% 46   29.95 29.96      
May 17 22:54 Calm 10 Mostly Cloudy BKN280 49 45     86%     29.93 29.94      
May 17 21:54 SSW 3 10 Mostly Cloudy FEW150 BKN280 49 45     86% 48   29.92 29.93      
May 17 20:54 SSW 5 10 Mostly Cloudy FEW030 FEW150 BKN280 50 45     83%     29.91 29.91      
May 17 19:54 SSW 6 10 Mostly Cloudy FEW035 BKN280 52        %     29.89 29.9      
May 17 18:54 SSW 10 10 Partly Cloudy FEW035 SCT280 55 47     74%     29.87 29.87      
May 17 17:54 SW 13 10 Mostly Cloudy FEW032 BKN280 58 49     72%     29.85 29.85      
May 17 16:54 SW 11 10 Mostly Cloudy SCT033 BKN280 60 50     69%     29.83 29.83      
May 17 15:54 SW 11 10 Mostly Cloudy FEW033 SCT045 BKN280 63 51     65%     29.82 29.82      
May 17 14:54 WSW 7 10 Mostly Cloudy FEW024 FEW035 BKN045 63 51     65%     29.81 29.8      
May 17 13:54 WSW 8 10 Cloudy FEW024 BKN033 OVC050 59 50     72%     29.8 29.8      
May 17 12:54 Calm 10 Mostly Cloudy FEW020 BKN033 BKN050 60 51     72%     29.78 29.78      
May 17 11:54 SW 7 10 Cloudy FEW018 BKN033 OVC050 58 50     75%     29.77 29.77      
May 17 10:54 SW 10 10 Cloudy FEW013 BKN035 OVC055 56 49     77%     29.76 29.76      
May 17 09:54 SSW 8 10 Mostly Cloudy BKN048 BKN060 BKN110 BKN250 56 50     80%     29.75 29.74      
May 17 08:54 SSW 10 10 Mostly Cloudy BKN048 BKN060 BKN100 BKN250 56 50     80%     29.73 29.73      
May 17 07:54 SW 11 10 Mostly Cloudy FEW044 BKN100 BKN250 56 50     80%     29.71 29.71     0
May 17 06:54 SW 11 10 Mostly Cloudy FEW044 BKN070 BKN085 BKN250 59 50     72%     29.7 29.7 0    
May 17 05:54 WSW 11 10 Light Rain FEW044 BKN060 OVC080 61 50     67%     29.69 29.69 0    
May 17 04:54 W 8 10 Cloudy FEW048 OVC065 62 50     65%     29.68 29.68   0  
May 17 03:54 SW 13 10 Cloudy BKN049 OVC070 66 51     59%     29.65 29.65 0    
May 17 02:54 SW 15 10 Cloudy BKN050 OVC090 66 50     56%     29.65 29.65 0    
May 17 01:54 SW 16 10 Cloudy BKN065 BKN075 OVC110 66 49     54%     29.66 29.65     0
May 17 00:54 SSW 15 10 Cloudy FEW070 OVC085 64 48     56%     29.68 29.67 0    
May 16 23:54 SSW 13 10 Cloudy BKN085 OVC130 63 45     52%     29.7 29.7 0    
May 16 22:54 S 8 10 Cloudy BKN080 OVC100 61 41     48%     29.74 29.74      
May 16 21:54 S 11 10 Clear   61 39     44%     29.76 29.75      
Notice The following observation data may not be complete
May 15 10:12 W 10 10 Light Rain FEW008 BKN023 OVC070   62      %     29.83   0    
May 14 09:35 SSW 11 10 Cloudy OVC005 59 54     83%     29.99        
Notice The following observation data may not be complete
May 14 07:54   0.25 Fog VV002          %              
May 14 04:20 SW 9 0.75 Fog/Mist VV002 56 52     87%     29.96        
May 13 23:54 SW 10 10 Mostly Cloudy BKN007 59 52     78%     29.97 29.97      
May 13 23:24 SW 9 10 Partly Cloudy FEW010 SCT025 59 51     75%     29.97        
May 13 23:09 SW 8 10 Mostly Cloudy FEW013 BKN028 59 51     75%     29.97        
May 12 14:54 NNE 8 10 Mostly Cloudy BKN070 58 41     53%     30.08 30.09      
Jun 11 23:54 S 8 10 Clear CLR 71 57     61%   71 29.98 29.96      
Jun 11 18:54 WSW 16 10 Mostly Clear FEW250 77 58     52%   77 30 29.99      
Jun 11 17:54   10 Mostly Clear FEW250 81 57     44%   81 30 29.99      
Jun 11 16:54   10 Mostly Clear FEW250 79 58     49%   79 30.01 29.99      
Jun 10 01:54 SSW 3 10 Mostly Cloudy SCT050 BKN080 BKN200 64 51     63%     29.86 29.85      
Jun 09 23:54 SW 6 10 Mostly Cloudy BKN090 BKN140 BKN300 64 52     65%     29.86 29.85      
Jun 09 11:54   10 Mostly Cloudy FEW039 FEW120 FEW180 FEW220 BKN270 68 50     53%     29.82 29.82      
Jun 09 01:54 S 7 10 Mostly Clear FEW250 56 50     80%     29.81 29.8      
Jun 08 02:54 SSE 5 10 Clear CLR 52 44     74%     30.05 30.05      
Jun 06 11:54 NNW 13 10 Mostly Cloudy SCT008 SCT016 BKN035 61 55     81%     29.78 29.77 0    
Jun 06 04:54 WNW 7 9 Light Rain OVC010 56 53     90%     29.73 29.73 0 0